This is the latest recevied weather packets stored in our database for station/object LU4EGV-13. If no packets are shown the sender has not sent any weather packets the latest 10 day(s).
| Time | Temp. | Humidity | Pressure | Rain* | Wind** | Luminosity | Snow |
|---|---|---|---|---|---|---|---|
| 1788499098 | 9.44° C | 85% | 1014.6 hPa | 0 mm | - | - | - |
| 1788498489 | 9.44° C | 84% | 1014.6 hPa | 0 mm | - | - | - |
| 1788497883 | 9.44° C | 84% | 1014.5 hPa | 0 mm | - | - | - |
| 1788497277 | 10° C | 84% | 1014.5 hPa | 0 mm | - | - | - |
| 1788496671 | 10° C | 83% | 1014.5 hPa | 0 mm | - | - | - |
| 1788496064 | 10.56° C | 82% | 1014.5 hPa | 0 mm | - | - | - |
| 1788495469 | 10.56° C | 81% | 1014.4 hPa | 0 mm | - | - | - |
| 1788494878 | 10.56° C | 81% | 1014.4 hPa | 0 mm | - | - | - |
| 1788494245 | 10.56° C | 80% | 1014.2 hPa | 0 mm | - | - | - |
| 1788493642 | 10.56° C | 78% | 1014 hPa | 0 mm | - | - | - |
| 1788493034 | 10.56° C | 77% | 1014.3 hPa | 0 mm | - | - | - |
| 1788492428 | 11.11° C | 76% | 1013.9 hPa | 0 mm | - | - | - |
| 1788491821 | 11.67° C | 74% | 1014 hPa | 0 mm | - | - | - |
| 1788491215 | 11.67° C | 73% | 1014 hPa | 0 mm | - | - | - |
| 1788490609 | 11.67° C | 71% | 1014.1 hPa | 0 mm | - | - | - |
| 1788490003 | 11.67° C | 70% | 1014 hPa | 0 mm | - | - | - |
| 1788489397 | 11.67° C | 69% | 1013.9 hPa | 0 mm | - | - | - |
| 1788488790 | 11.67° C | 68% | 1013.9 hPa | 0 mm | - | - | - |
| 1788488189 | 12.22° C | 64% | 1013.8 hPa | 0 mm | - | - | - |
| 1788487580 | 12.22° C | 62% | 1013.7 hPa | 0 mm | - | - | - |
| 1788486972 | 12.78° C | 60% | 1013.6 hPa | 0 mm | - | - | - |
| 1788486365 | 13.33° C | 57% | 1013.5 hPa | 0 mm | - | - | - |
| 1788485760 | 13.33° C | 57% | 1013.2 hPa | 0 mm | - | - | - |
| 1788485153 | 13.33° C | 57% | 1013 hPa | 0 mm | - | - | - |
| 1788484548 | 13.33° C | 58% | 1012.8 hPa | 0 mm | - | - | - |
* Rain latest hour (hover to see other rain measurements)
** Current wind speed in m/s (hover to see current wind gust speed)